Weather History for De Queen, AR

Change the Weather History Date:

Saturday, June 15, 2013

  Actual Average Record
Temperature  
Mean Temperature 79 °F 78 °F  
Max Temperature 89 °F 89 °F 98 °F (1958)
Min Temperature 69 °F 67 °F 52 °F (1947)
Degree Days  
Heating Degree Days 0 0  
Month to date heating degree days 0 0  
Since 1 June heating degree days 0 0  
Since 1 July heating degree days 3050 3042  
Cooling Degree Days 14 13  
Month to date cooling degree days 160 163  
Year to date cooling degree days 392 380  
Since 1 June cooling degree days 160 163  
Growing Degree Days 30 (Base 50)    
Moisture  
Dew Point 68 °F    
Average Humidity 70    
Maximum Humidity 93    
Minimum Humidity 46    
Precipitation  
Precipitation T in 0.16 in 2.64 in (2000)
Month to date precipitation 0.57 2.22  
Year to date precipitation 11.67 23.35  
Snow  
Snow 0.00 in - - ()
Month to date snowfall 0.0  
Since 1 June snowfall 0.0  
Since 1 July snowfall 4.5  
Snow Depth 0.00 in    
Sea Level Pressure  
Sea Level Pressure 29.97 in    
Wind  
Wind Speed 3 mph (ESE)    
Max Wind Speed 16 mph    
Max Gust Speed 20 mph    
Visibility 9 miles    
Events Rain    
T = Trace of Precipitation, MM = Missing Value Source: NWS Daily Summary

Daily Weather History Graph

Daily Weather History Graph

Search for Another Location

Airport:

Trip Planner

Search our weather history database for the weather conditions in past years. The results will help you decide how hot, cold, wet, or windy it might be!

Date:

Astronomy

Jun. 15, 2013 Rise Set
Actual Time 6:05 AM CDT 8:30 PM CDT
Civil Twilight 5:36 AM CDT 8:59 PM CDT
Nautical Twilight 5:00 AM CDT 9:35 PM CDT
Astronomical Twilight 4:21 AM CDT 10:15 PM CDT
Moon 12:25 PM CDT (6/15) 12:21 AM CDT (6/15)
Length of Visible Light 15h 23m
Length of Day
14h 24m
Waxing Crescent, 40% of the Moon is Illuminated
Jun 15
Waxing Crescent
Jun 16
First Quarter
Jun 23
Full
Jun 29
Last Quarter
Jul 8
New

Hourly Weather History & Observations

Time (CDT) Temp. Heat Index Dew Point Humidity Pressure Visibility Wind Dir Wind Speed Gust Speed Precip Events Conditions
12:53 AM 77.0 °F - 71.1 °F 82% 29.98 in 10.0 mi East 3.5 mph - N/A   Clear
1:53 AM 75.0 °F - 71.1 °F 87% 29.98 in 9.0 mi Calm Calm - N/A   Clear
2:53 AM 73.0 °F - 70.0 °F 90% 29.97 in 6.0 mi ENE 3.5 mph - N/A   Clear
3:53 AM 72.0 °F - 69.1 °F 91% 29.96 in 7.0 mi East 3.5 mph - N/A   Clear
4:53 AM 71.1 °F - 68.0 °F 90% 29.96 in 7.0 mi East 3.5 mph - N/A   Clear
5:53 AM 70.0 °F - 66.9 °F 90% 29.96 in 5.0 mi ENE 3.5 mph - N/A   Clear
6:53 AM 71.1 °F - 68.0 °F 90% 29.99 in 6.0 mi Calm Calm - N/A   Clear
7:53 AM 75.0 °F - 68.0 °F 79% 30.01 in 7.0 mi Calm Calm - N/A   Clear
8:53 AM 79.0 °F - 66.9 °F 66% 30.02 in 10.0 mi ESE 6.9 mph - N/A   Clear
9:53 AM 78.1 °F - 66.0 °F 66% 30.02 in 10.0 mi SSW 3.5 mph - N/A   Clear
10:53 AM 81.0 °F 83.3 °F 66.9 °F 62% 30.01 in 10.0 mi SE 3.5 mph - N/A   Clear
11:53 AM 84.9 °F 86.6 °F 64.9 °F 51% 30.01 in 10.0 mi ESE 6.9 mph - N/A   Clear
12:53 PM 84.9 °F 86.6 °F 64.9 °F 51% 30.00 in 10.0 mi Variable 3.5 mph - N/A   Clear
1:53 PM 87.1 °F 88.9 °F 64.9 °F 48% 29.97 in 10.0 mi Calm Calm - N/A   Clear
2:53 PM 88.0 °F 89.3 °F 64.0 °F 45% 29.96 in 10.0 mi Calm Calm - N/A   Clear
3:53 PM 89.1 °F 92.1 °F 66.9 °F 48% 29.94 in 10.0 mi East 4.6 mph - N/A   Clear
4:53 PM 89.1 °F 92.1 °F 66.9 °F 48% 29.92 in 10.0 mi South 6.9 mph - N/A   Clear
5:53 PM 88.0 °F 90.3 °F 66.0 °F 48% 29.91 in 10.0 mi Variable 5.8 mph - N/A   Clear
6:53 PM 84.0 °F 86.5 °F 66.9 °F 56% 29.92 in 10.0 mi SE 3.5 mph - N/A   Clear
7:53 PM 82.0 °F 84.9 °F 68.0 °F 62% 29.94 in 10.0 mi SE 3.5 mph - N/A   Clear
8:53 PM 77.0 °F - 72.0 °F 84% 29.95 in 10.0 mi Calm Calm - N/A   Clear
9:53 PM 77.0 °F - 73.0 °F 88% 29.97 in 9.0 mi Calm Calm - N/A   Scattered Clouds
10:53 PM 75.9 °F - 73.0 °F 91% 29.96 in 6.0 mi Calm Calm - 0.00 in Rain Light Rain
11:53 PM 73.9 °F - 72.0 °F 93% 29.91 in 6.0 mi ENE 8.1 mph - 0.00 in   Scattered Clouds